User: anonymous   Login
Location: *
(51.1248°S, 108.4023°W)
Time: 12:10:07
(UTC+00:00)
Language:

MOS 1-B - Orbit

View from above orbital plane
View from above orbital plane
View from above satellite
View from above satellite

Ground track
Ground track

The orbit data is extracted from the following two-line orbital elements,

1 20478U 90013A   21262.90052223  .00000183  00000-0  16940-3 0  9995
2 20478  99.4285 275.1853 0005144 196.6710 163.4282 13.95540280530512
Epoch (UTC): 19 September 2021 21:36:45
Eccentricity: 0.0005144
inclination: 99.4285°
perigee height: 905 km
apogee height: 913 km
right ascension of ascending node: 275.1853°
argument of perigee: 196.6710°
revolutions per day: 13.95540280
mean anomaly at epoch: 163.4282°
orbit number at epoch: 53051

The dashed part of the orbit path shows where the satellite is in the earth's shadow,  

DLR